TimeCST,TemperatureF,Dew PointF,Humidity,Sea Level PressureIn,VisibilityMPH,Wind Direction,Wind SpeedMPH,Gust SpeedMPH,PrecipitationIn,Events,Conditions,WindDirDegrees,DateUTC
12:53 AM,30.0,21.0,69,30.04,10.0,North,13.8,24.2,N/A,,Overcast,350,2014-03-01 06:53:00
1:13 AM,28.0,21.9,78,30.03,2.5,North,10.4,-,0.00,Snow,Light Snow,350,2014-03-01 07:13:00
1:23 AM,28.0,23.0,81,30.03,1.8,North,6.9,-,0.00,Snow,Light Snow,360,2014-03-01 07:23:00
1:27 AM,28.0,23.0,81,30.03,3.0,North,8.1,-,0.00,Snow,Light Snow,10,2014-03-01 07:27:00
1:38 AM,28.0,23.0,81,30.03,8.0,NNW,9.2,-,0.00,,Overcast,340,2014-03-01 07:38:00
1:53 AM,28.0,24.1,85,30.06,8.0,NNW,8.1,-,0.00,,Overcast,340,2014-03-01 07:53:00
2:00 AM,27.0,24.1,89,30.05,7.0,NNW,10.4,-,N/A,,Overcast,340,2014-03-01 08:00:00
2:53 AM,26.1,21.9,84,30.08,7.0,NNW,12.7,-,N/A,,Overcast,330,2014-03-01 08:53:00
3:09 AM,25.0,21.0,85,30.06,9.0,NNW,12.7,-,N/A,,Overcast,340,2014-03-01 09:09:00
3:53 AM,24.1,21.0,88,30.12,5.0,NNW,15.0,20.7,N/A,,Overcast,330,2014-03-01 09:53:00
4:08 AM,23.0,19.9,88,30.10,7.0,NNW,13.8,21.9,N/A,,Overcast,330,2014-03-01 10:08:00
4:53 AM,21.9,18.0,85,30.15,8.0,NNW,11.5,-,N/A,,Overcast,340,2014-03-01 10:53:00
5:53 AM,21.0,17.1,85,30.17,10.0,NNW,11.5,-,N/A,,Overcast,330,2014-03-01 11:53:00
6:04 AM,21.0,16.0,81,30.15,10.0,NNW,8.1,-,N/A,,Overcast,340,2014-03-01 12:04:00
6:53 AM,19.9,14.0,78,30.21,10.0,North,11.5,-,N/A,,Overcast,350,2014-03-01 12:53:00
7:53 AM,19.0,12.0,74,30.25,10.0,NNW,16.1,-,N/A,,Overcast,340,2014-03-01 13:53:00
8:03 AM,19.9,12.0,71,30.22,10.0,North,13.8,-,N/A,,Overcast,360,2014-03-01 14:03:00
8:53 AM,19.0,12.0,74,30.26,10.0,North,13.8,-,N/A,,Overcast,360,2014-03-01 14:53:00
9:53 AM,21.0,12.0,68,30.27,10.0,North,12.7,-,N/A,,Overcast,360,2014-03-01 15:53:00
10:53 AM,23.0,12.9,65,30.30,10.0,North,11.5,-,N/A,,Overcast,360,2014-03-01 16:53:00
11:44 AM,23.0,12.9,65,30.28,9.0,North,11.5,-,N/A,,Overcast,350,2014-03-01 17:44:00
11:53 AM,23.0,12.9,65,30.31,9.0,North,10.4,-,N/A,,Overcast,360,2014-03-01 17:53:00
12:53 PM,21.9,12.0,66,30.31,9.0,North,11.5,-,N/A,,Overcast,350,2014-03-01 18:53:00
1:20 PM,21.0,10.9,65,30.27,9.0,NNW,10.4,-,N/A,,Overcast,340,2014-03-01 19:20:00
1:53 PM,21.9,10.9,63,30.30,10.0,NNW,10.4,-,N/A,,Overcast,330,2014-03-01 19:53:00
2:14 PM,21.0,10.9,65,30.26,10.0,North,8.1,-,N/A,,Overcast,350,2014-03-01 20:14:00
2:48 PM,19.4,8.6,63,30.26,10.0,NNW,11.5,-,N/A,,Overcast,330,2014-03-01 20:48:00
2:53 PM,19.9,9.0,62,30.30,10.0,NNW,11.5,-,N/A,,Overcast,340,2014-03-01 20:53:00
3:53 PM,19.0,7.0,59,30.30,10.0,North,13.8,-,N/A,,Overcast,350,2014-03-01 21:53:00
4:53 PM,18.0,9.0,68,30.32,10.0,North,16.1,-,N/A,,Overcast,350,2014-03-01 22:53:00
5:19 PM,17.1,10.0,74,30.30,4.0,North,16.1,-,0.00,Snow,Light Snow,350,2014-03-01 23:19:00
5:41 PM,15.1,9.0,77,30.32,2.5,North,16.1,-,0.00,Snow,Light Snow,350,2014-03-01 23:41:00
5:48 PM,15.8,8.6,73,30.31,6.0,North,13.8,-,0.00,Snow,Light Snow,360,2014-03-01 23:48:00
5:53 PM,15.1,8.1,74,30.35,9.0,North,15.0,-,0.00,,Overcast,360,2014-03-01 23:53:00
6:53 PM,14.0,8.1,77,30.36,7.0,North,13.8,-,N/A,,Overcast,360,2014-03-02 00:53:00
7:50 PM,12.2,6.8,79,30.34,2.5,North,13.8,-,0.00,Snow,Light Snow,350,2014-03-02 01:50:00
7:53 PM,12.9,8.1,81,30.38,2.5,North,12.7,-,0.00,Snow,Light Snow,350,2014-03-02 01:53:00
8:19 PM,12.0,7.0,80,30.36,3.0,North,16.1,-,0.00,Snow,Light Snow,350,2014-03-02 02:19:00
8:53 PM,12.0,7.0,80,30.37,5.0,North,16.1,21.9,0.00,Snow,Light Snow,350,2014-03-02 02:53:00
9:50 PM,10.4,5.0,79,30.35,2.0,North,16.1,-,0.00,Snow,Light Snow,350,2014-03-02 03:50:00
9:53 PM,10.0,5.0,80,30.39,1.5,North,12.7,-,0.00,Snow,Light Snow,350,2014-03-02 03:53:00
10:19 PM,9.0,5.0,84,30.38,1.0,NNW,11.5,-,0.01,Snow,Light Snow,340,2014-03-02 04:19:00
10:46 PM,8.1,3.9,83,30.38,0.5,North,15.0,-,0.02,Fog-Snow,Snow,350,2014-03-02 04:46:00
10:53 PM,7.0,3.0,84,30.42,0.5,North,12.7,-,0.02,Fog-Snow,Snow,350,2014-03-02 04:53:00
11:53 PM,6.1,1.9,83,30.40,0.8,North,15.0,-,0.03,Snow,Light Snow,360,2014-03-02 05:53:00